Location: Banios
(43.0451°N, 0.2335°E)
Time: 09:06:32
(UTC+00:00)

A-11 Canister half - Pass Details

Date: 12 May 2021
Orbit: 1527 x 1681 km, 47.3° (Epoch: 22 June)

Event Time Altitude Azimuth Distance (km) Brightness Sun altitude
Rises 11:31:03 0° 267° (W) 4,763 11.5 64.7°
Reaches altitude 10° 11:34:08 10° 270° (W) 3,799 11.1 64.8°
Maximum altitude 11:43:50 71° 354° (N) 1,713 10.1 65.1°
Drops below altitude 10° 11:53:52 10° 78° (ENE) 3,917 11.2 65.2°
Sets 11:57:06 0° 81° (E) 4,918 11.6 65.2°
